Wind_Speed
16 15 15 15 15 15 13 11 11 10 10 10 10 11 11 12 13 11 7 8 8 12 15 17 19 17 15 12 6 3 2 8 8 10 12 19 15 16 15 9 7 9 12 18 32
16 16 15 15 15 14 14 13 11 11 10 11 11 11 12 12 12 10 13 9 8 14 14 14 16 18 16 13 10 7 4 2 14 15 2 16 12 6 12 12 11 10 16 29 29
16 16 16 15 15 14 13 13 13 11 11 10 11 11 12 12 9 13 13 12 11 12 15 17 20 18 15 12 13 9 4 1 8 11 15 9 13 8 8 16 8 9 16 28 29
17 16 16 15 15 15 13 13 12 12 12 11 10 11 10 11 6 11 15 15 14 13 18 19 21 23 19 15 9 11 2 5 6 15 17 5 17 7 15 18 11 5 2 17 30
21 18 17 16 14 14 14 13 12 11 11 11 11 9 10 10 12 6 13 16 16 15 16 18 20 21 22 14 10 12 2 10 16 21 15 11 7 14 9 13 12 14 11 13 27
22 21 20 18 16 14 13 13 12 11 11 11 10 9 8 10 9 12 7 12 16 15 15 18 15 14 13 13 9 5 12 14 19 21 14 12 3 7 17 11 10 11 11 22 30
22 20 18 17 17 16 14 12 12 12 10 11 10 8 7 6 8 8 11 10 13 14 12 11 18 18 12 7 6 14 20 14 12 15 16 6 4 6 17 14 10 8 16 28 36
20 19 20 18 16 16 16 14 12 12 11 11 10 8 5 5 9 8 8 12 13 16 14 18 21 18 16 12 13 14 13 11 5 6 11 9 3 1 9 8 7 7 15 29 36
19 17 17 20 18 16 15 15 13 12 12 12 9 6 3 7 5 3 5 13 15 15 18 23 22 21 17 13 14 13 11 8 13 9 13 12 9 17 14 8 8 8 16 26 35
18 15 14 15 15 12 12 12 13 12 13 12 10 5 3 5 3 3 6 12 15 14 25 29 23 23 22 16 10 11 11 12 13 6 13 18 22 16 12 7 3 14 15 27 37
18 15 13 12 10 8 9 10 11 12 15 14 13 14 8 3 4 2 6 13 11 12 29 30 26 26 20 18 14 13 15 19 15 9 19 18 30 28 14 15 11 18 18 13 36
14 13 10 7 5 6 9 9 9 12 12 17 17 17 15 8 6 2 2 18 15 13 23 24 23 21 16 15 15 12 13 14 18 12 16 13 26 29 19 14 13 10 15 13 34
13 10 7 4 3 7 7 5 6 8 7 12 16 15 9 10 6 6 2 11 17 14 12 16 9 9 15 11 14 16 18 14 18 19 16 11 20 25 23 24 21 19 9 17 16
12 9 3 3 6 10 10 7 2 3 1 7 12 13 10 5 7 10 11 11 10 13 11 10 13 13 11 17 15 19 14 17 20 14 12 7 7 14 21 27 28 28 20 27 25
10 8 5 2 6 7 7 8 2 8 3 11 11 8 8 10 9 11 8 12 15 14 10 11 10 9 14 17 12 17 11 16 19 17 14 11 6 10 26 38 32 30 28 19 27
7 7 6 2 4 5 4 4 11 4 4 8 8 4 11 17 9 7 1 10 14 17 12 11 13 7 8 13 17 16 15 18 19 18 4 2 3 6 11 13 31 32 28 28 26
6 6 6 5 5 3 8 9 9 6 10 7 6 7 10 17 9 3 1 6 4 5 9 8 13 12 10 13 11 16 15 3 4 3 6 12 9 4 10 13 17 23 23 24 26
11 10 10 12 10 14 11 13 11 11 15 14 8 6 5 10 11 7 5 4 1 6 10 3 5 10 2 2 9 6 8 9 6 3 3 11 4 7 15 17 17 17 16 26 30
16 18 15 13 18 17 14 14 12 13 11 10 8 8 4 7 13 10 5 4 4 3 8 5 6 4 2 4 8 10 9 6 6 13 2 6 18 11 5 17 22 24 23 25 27
18 23 22 17 15 16 20 21 13 12 5 2 6 7 8 10 9 6 5 6 4 2 2 2 4 8 5 6 8 5 5 5 5 2 3 5 9 17 20 28 28 17 29 33 33
14 19 17 13 11 12 12 10 9 6 7 4 4 5 7 5 11 13 6 5 7 6 4 3 11 12 8 6 18 11 14 10 5 3 5 2 5 7 15 23 21 17 13 30 39
13 16 10 12 13 7 10 5 1 1 4 7 6 4 10 6 7 10 13 10 12 5 5 4 7 18 25 21 14 1 10 16 8 6 5 1 2 22 21 22 22 20 16 20 44
6 10 7 3 12 14 12 4 4 5 5 6 5 5 10 9 6 10 11 9 10 11 3 2 3 9 15 2 3 2 5 15 14 7 5 1 5 12 16 25 26 19 19 15 37
4 3 5 2 5 6 3 3 5 5 9 6 4 6 9 11 10 8 8 4 7 7 3 7 4 5 4 10 18 27 26 20 17 10 20 7 16 20 17 17 17 20 13 17 18
7 14 13 11 13 4 4 1 4 2 5 5 0 1 4 10 9 10 9 6 1 4 2 5 1 6 9 10 15 24 28 20 19 17 13 20 19 20 14 16 13 13 17 16 23
8 10 10 11 6 8 7 6 6 5 3 2 3 4 7 6 8 14 14 12 11 7 4 4 6 11 13 14 18 24 24 25 24 19 15 20 18 14 13 19 13 7 10 10 16
8 10 7 13 11 10 14 11 11 8 5 7 5 2 5 6 10 14 15 17 16 17 11 4 5 9 5 10 16 21 29 24 27 22 20 19 16 20 12 14 15 8 5 6 4
Wind_Direction
314 311 308 307 305 303 302 301 299 290 281 271 260 256 246 244 237 236 232 226 211 203 200 202 199 198 204 165 142 110 6 56 35 22 191 179 181 185 202 201 166 153 165 192 169
312 309 305 303 303 301 298 297 293 290 286 276 266 259 253 243 241 234 223 214 208 203 205 198 200 207 207 186 181 196 220 29 38 28 355 195 178 137 199 188 181 171 161 179 179
311 307 304 301 298 298 296 295 292 282 283 283 274 262 256 252 236 227 217 213 206 204 202 189 190 202 200 201 185 193 166 234 339 326 349 253 254 237 225 199 169 185 182 182 185
303 303 300 297 295 294 291 290 291 284 274 277 278 271 259 251 229 228 218 209 206 205 203 200 201 193 188 198 182 221 86 10 350 293 324 336 317 187 207 194 206 216 209 191 188
300 296 293 293 290 290 291 285 283 284 274 270 273 271 264 247 220 195 212 211 206 210 206 207 204 202 187 183 170 227 15 312 318 265 296 334 347 155 147 207 190 174 190 201 191
291 295 297 291 287 286 284 285 278 275 274 264 267 272 264 253 230 214 200 203 204 203 208 208 201 186 171 165 208 228 290 298 307 254 265 332 302 173 190 190 157 166 183 189 188
300 284 280 284 285 286 284 276 274 267 265 260 257 262 265 246 224 210 216 218 201 198 202 184 168 183 179 195 237 278 284 291 287 244 243 265 9 262 206 202 179 151 180 187 183
301 294 284 275 274 277 280 277 264 259 254 255 250 256 255 210 261 258 208 209 199 195 180 166 174 190 204 207 231 260 259 294 242 259 242 243 253 176 141 125 151 156 180 192 188
307 301 288 283 277 273 271 270 263 246 241 242 243 240 241 238 191 287 221 185 188 188 174 168 192 197 196 214 243 246 264 234 216 244 262 236 223 167 179 208 249 237 179 194 189
310 309 299 284 280 273 264 257 249 239 222 225 219 204 201 263 29 359 201 181 164 172 177 179 200 199 199 203 236 242 232 249 272 207 306 257 238 234 193 225 307 225 182 186 193
310 306 304 296 282 260 245 226 226 227 218 195 177 162 136 299 302 303 182 175 166 187 181 181 199 203 201 206 230 233 251 263 243 272 315 281 244 233 203 191 224 201 193 193 202
322 317 307 294 270 211 210 206 222 245 230 212 180 163 162 158 216 74 86 176 188 183 178 190 218 213 211 229 229 238 264 267 286 318 326 324 230 202 214 210 221 197 191 242 197
335 333 322 291 206 170 180 191 214 225 239 212 195 205 197 191 202 221 346 164 190 194 202 221 206 204 219 221 236 244 254 265 284 304 315 312 188 195 203 205 202 214 196 229 207
358 358 357 168 165 162 174 179 164 215 122 162 185 168 178 165 163 161 176 182 189 193 194 239 211 233 233 237 235 254 232 267 285 310 330 226 141 212 201 205 201 211 236 244 201
15 24 40 129 193 202 220 181 148 134 96 139 159 174 194 196 155 180 208 212 193 190 202 230 248 234 238 241 257 253 248 265 280 300 316 215 268 212 222 216 231 224 224 247 204
13 27 40 47 264 302 288 167 138 111 117 157 177 206 191 162 144 112 299 220 211 214 238 247 231 262 246 246 261 251 272 264 275 287 293 230 273 237 229 271 235 235 233 236 205
10 22 24 21 35 56 114 119 88 13 125 147 135 112 144 156 152 208 140 84 152 225 231 243 242 236 250 250 240 235 243 299 314 288 226 294 320 249 284 281 258 255 249 226 217
53 68 55 60 86 106 90 76 54 41 61 84 130 122 174 151 172 127 152 71 291 300 256 241 173 189 180 265 241 222 237 209 192 209 279 308 232 273 304 290 278 276 253 222 224
76 71 76 92 99 79 73 64 42 16 21 53 103 86 70 144 159 138 135 40 57 11 199 182 224 194 209 66 210 219 252 257 284 261 266 274 292 269 313 358 271 261 233 232 237
60 71 83 102 81 78 74 68 54 25 11 19 63 56 63 71 113 117 137 81 75 19 162 192 305 253 181 146 99 143 258 270 220 112 172 264 287 271 321 316 329 299 243 227 223
59 87 88 69 63 78 83 92 77 67 41 89 41 83 77 96 84 88 59 98 100 40 330 263 269 260 285 15 352 13 24 11 327 183 145 153 239 13 27 360 340 317 281 241 222
81 89 67 86 108 89 50 67 172 344 108 109 125 87 82 129 101 71 54 44 357 337 318 328 285 286 285 293 316 70 36 28 23 326 329 41 265 27 6 340 322 331 285 239 220
80 88 52 159 93 99 103 66 351 12 181 102 127 126 101 112 114 92 69 41 352 324 339 289 318 314 300 320 220 349 338 352 358 7 0 300 277 325 356 12 8 340 328 250 213
188 328 17 327 150 161 168 72 52 27 104 116 163 191 155 137 134 169 151 62 56 52 20 284 247 263 272 306 300 303 305 310 329 332 329 337 324 348 354 3 15 351 322 286 223
37 63 65 62 63 110 207 255 341 213 121 163 103 51 182 196 185 191 202 171 68 120 59 10 335 270 253 274 281 277 286 295 290 304 310 322 334 350 324 341 10 7 328 328 202
25 75 54 32 15 29 60 73 49 49 48 26 342 294 272 249 231 237 234 237 249 247 283 304 278 272 276 279 284 284 275 272 270 283 315 303 309 287 313 304 298 0 342 357 188
67 83 61 53 68 59 51 58 56 46 32 21 19 341 269 271 262 262 262 265 259 263 257 225 274 298 290 305 309 290 268 279 284 290 293 290 298 274 295 288 289 293 288 9 287
Height
3149 3148 3146 3144 3142 3141 3140 3139 3137 3136 3136 3136 3136 3135 3136 3136 3138 3139 3140 3142 3143 3145 3147 3150 3153 3155 3158 3162 3163 3165 3168 3167 3164 3167 3165 3165 3166 3167 3170 3173 3175 3178 3177 3176 3175
3146 3145 3143 3141 3139 3138 3137 3136 3135 3134 3133 3133 3133 3132 3133 3134 3135 3137 3138 3139 3141 3143 3146 3149 3152 3153 3156 3160 3161 3163 3166 3167 3167 3168 3167 3166 3165 3164 3168 3171 3173 3177 3177 3176 3175
3143 3141 3139 3138 3136 3135 3134 3133 3132 3132 3130 3130 3130 3130 3130 3131 3134 3134 3136 3137 3139 3141 3144 3146 3148 3152 3156 3157 3159 3162 3163 3165 3167 3169 3168 3166 3161 3164 3168 3171 3175 3177 3177 3177 3177
3140 3138 3135 3134 3133 3132 3131 3130 3129 3128 3128 3127 3127 3127 3127 3129 3134 3131 3133 3135 3137 3139 3141 3144 3146 3148 3153 3155 3158 3159 3159 3162 3166 3168 3169 3167 3164 3158 3168 3171 3175 3177 3178 3178 3179
3135 3133 3132 3130 3128 3128 3127 3126 3126 3125 3125 3125 3124 3125 3125 3126 3129 3130 3131 3133 3135 3138 3140 3143 3145 3148 3150 3156 3158 3157 3158 3162 3167 3169 3168 3168 3165 3165 3167 3170 3174 3178 3179 3179 3180
3130 3129 3128 3126 3125 3123 3123 3123 3122 3122 3122 3122 3122 3122 3123 3124 3126 3128 3129 3131 3133 3136 3139 3141 3145 3150 3153 3155 3156 3157 3159 3161 3164 3164 3168 3168 3169 3170 3172 3173 3175 3177 3180 3180 3182
3124 3123 3122 3122 3121 3120 3119 3118 3119 3119 3118 3118 3119 3119 3120 3122 3122 3124 3127 3129 3132 3135 3138 3142 3145 3147 3150 3151 3155 3157 3157 3158 3160 3162 3165 3167 3170 3168 3170 3172 3175 3178 3180 3182 3185
3119 3118 3117 3115 3116 3116 3115 3114 3114 3115 3115 3115 3116 3118 3118 3119 3119 3121 3124 3126 3129 3132 3137 3142 3144 3146 3147 3151 3152 3154 3156 3157 3161 3162 3166 3168 3169 3170 3172 3173 3176 3178 3180 3182 3186
3114 3112 3111 3111 3110 3111 3110 3110 3110 3110 3111 3113 3115 3116 3117 3117 3118 3118 3120 3123 3127 3131 3135 3139 3141 3144 3147 3148 3150 3153 3154 3156 3157 3161 3164 3167 3167 3168 3169 3171 3172 3175 3179 3182 3186
3110 3108 3106 3105 3104 3105 3105 3105 3106 3107 3108 3110 3112 3116 3116 3116 3117 3118 3119 3120 3124 3128 3132 3135 3139 3141 3144 3146 3148 3151 3155 3155 3156 3161 3164 3163 3163 3163 3167 3170 3170 3173 3175 3180 3183
3105 3104 3102 3100 3100 3101 3101 3102 3105 3106 3105 3106 3109 3110 3112 3116 3117 3118 3118 3120 3123 3126 3129 3134 3137 3138 3142 3145 3148 3150 3153 3152 3151 3157 3161 3159 3157 3157 3160 3164 3166 3169 3175 3179 3182
3100 3100 3099 3097 3097 3097 3097 3099 3100 3102 3103 3104 3107 3108 3110 3112 3117 3117 3119 3121 3122 3126 3130 3134 3133 3139 3142 3145 3147 3149 3151 3151 3149 3155 3156 3152 3153 3158 3159 3163 3165 3166 3170 3177 3181
3097 3096 3095 3095 3095 3096 3096 3098 3097 3098 3100 3102 3106 3108 3110 3113 3115 3116 3119 3121 3123 3126 3128 3131 3134 3137 3140 3142 3145 3146 3148 3148 3150 3153 3153 3151 3154 3156 3159 3163 3164 3166 3168 3170 3173
3096 3094 3093 3093 3096 3094 3094 3094 3095 3097 3100 3103 3104 3107 3109 3112 3115 3116 3119 3121 3123 3125 3128 3130 3132 3134 3137 3139 3143 3143 3144 3146 3148 3152 3151 3152 3156 3159 3158 3160 3160 3160 3164 3165 3169
3096 3095 3094 3093 3093 3094 3094 3093 3094 3097 3099 3105 3104 3107 3108 3113 3115 3116 3118 3120 3122 3123 3126 3128 3129 3132 3134 3136 3140 3140 3142 3144 3145 3147 3150 3151 3153 3153 3154 3155 3153 3155 3162 3162 3164
3097 3095 3094 3094 3094 3094 3094 3095 3096 3098 3099 3103 3104 3106 3107 3110 3113 3116 3116 3117 3119 3121 3123 3124 3127 3129 3131 3133 3136 3137 3140 3141 3142 3143 3145 3148 3151 3149 3149 3147 3150 3153 3155 3159 3162
3097 3095 3094 3094 3094 3094 3095 3097 3097 3097 3102 3105 3105 3105 3106 3110 3113 3115 3116 3117 3119 3121 3121 3122 3124 3127 3129 3130 3132 3134 3137 3139 3142 3142 3142 3144 3148 3147 3148 3148 3148 3149 3152 3156 3161
3098 3096 3095 3094 3095 3097 3098 3099 3099 3102 3101 3102 3104 3106 3109 3110 3113 3115 3116 3117 3118 3117 3119 3120 3123 3123 3124 3126 3129 3131 3133 3136 3142 3142 3140 3140 3141 3144 3147 3147 3147 3148 3149 3152 3154
3100 3098 3097 3098 3098 3099 3099 3098 3105 3104 3105 3104 3104 3105 3106 3109 3111 3114 3114 3116 3116 3116 3117 3118 3120 3121 3124 3125 3125 3128 3132 3135 3135 3137 3140 3141 3140 3140 3142 3141 3142 3143 3145 3146 3148
3103 3100 3100 3103 3102 3101 3102 3103 3107 3107 3106 3107 3106 3107 3107 3108 3110 3111 3114 3117 3117 3116 3116 3118 3118 3119 3123 3124 3125 3127 3130 3132 3132 3138 3142 3140 3141 3139 3140 3137 3137 3135 3140 3142 3145
3106 3102 3103 3104 3104 3104 3105 3107 3107 3107 3108 3108 3108 3108 3108 3110 3112 3112 3116 3117 3118 3117 3117 3119 3120 3119 3122 3124 3127 3128 3129 3131 3132 3134 3137 3142 3142 3146 3141 3138 3134 3133 3135 3137 3141
3107 3105 3106 3105 3104 3104 3105 3107 3107 3108 3109 3108 3109 3108 3109 3110 3113 3113 3116 3116 3116 3116 3117 3119 3120 3118 3118 3123 3126 3130 3132 3133 3135 3134 3135 3137 3143 3142 3139 3136 3131 3127 3126 3127 3135
3108 3107 3107 3107 3105 3104 3106 3105 3107 3107 3107 3107 3107 3109 3110 3109 3114 3115 3116 3117 3115 3114 3117 3119 3120 3121 3117 3122 3124 3126 3130 3135 3135 3134 3134 3136 3139 3137 3135 3133 3129 3125 3120 3121 3125
3111 3109 3106 3104 3106 3106 3105 3105 3107 3107 3107 3106 3107 3109 3110 3110 3111 3112 3114 3114 3114 3114 3115 3118 3121 3124 3126 3128 3128 3125 3128 3131 3134 3134 3133 3135 3132 3133 3133 3129 3128 3123 3120 3117 3121
3112 3110 3109 3107 3105 3106 3106 3107 3108 3107 3108 3107 3108 3109 3110 3110 3111 3111 3112 3114 3114 3114 3115 3117 3120 3122 3123 3124 3124 3124 3123 3126 3129 3132 3134 3133 3133 3135 3132 3130 3128 3126 3121 3117 3116
3114 3111 3111 3109 3108 3107 3106 3107 3106 3106 3107 3107 3107 3107 3106 3107 3109 3109 3111 3112 3113 3115 3115 3116 3119 3120 3121 3123 3123 3122 3122 3123 3124 3127 3130 3130 3130 3128 3131 3126 3127 3126 3123 3124 3121
3114 3113 3112 3111 3110 3109 3108 3108 3107 3107 3107 3106 3106 3106 3106 3107 3106 3107 3108 3109 3111 3112 3114 3116 3117 3118 3118 3120 3120 3118 3117 3120 3120 3124 3122 3123 3124 3121 3126 3121 3123 3123 3121 3121 3124